Location: Comstock Ranch
(38.0499°N, 120.2627°W)
Time: 22:55:40
(UTC+00:00)

SeaSat 1 - Pass Details

Date: 08 September 2024
Orbit: 740 x 742 km, 108.0° (Epoch: 12 October)

Event Time Altitude Azimuth Distance (km) Brightness Sun altitude
Rises 13:07:03 0° 204° (SSW) 3,161 5.3 -6.7°
Reaches altitude 10° 13:10:49 10° 234° (SW) 2,245 4.4 -6.0°
Maximum altitude 13:12:41 12° 257° (WSW) 2,107 4.1 -5.6°
Drops below altitude 10° 13:14:33 10° 280° (W) 2,252 4.3 -5.3°
Sets 13:18:23 0° 311° (NW) 3,183 5.3 -4.5°
